Main page
METAR-TAF:

METAR-TAF

Airports :

Mahshahr, Iran

Mahshahr Airport

latitude: 30-33-23N, longitude: 049-09-07E, elevation: 2 m

Current weather observation

The report was made 59 minutes ago, at 09:00 UTC
Wind 8 kt from the North
Temperature 34°C
Humidity 23%
Pressure 1010 hPa
Visibility 10 km or more
no clouds below 1500 m and no cumulonimbus

METAR: OIAM 220900Z 36008KT CAVOK 34/10 Q1010

Time: 13:29 (09:59 UTC)


TAF: missing

Weather observations and forecasts of more than 4000 airports (METAR and TAF reports).

The available stations are represented by yellow and red dots on the map.

Hover mouse over dot to see the name of the station.

Then click to see weather observations and forecasts.

To change the map : click on the green buttons with a black cross to zoom in, on the green button with a dash to zoom out, or on the green arrows for adjacent maps.


METAR-TAF: